Location: Bishop�s Knoyle
(51.0728°N, 2.1714°W)
Time: 14:19:17
(UTC+00:00)

NOSS 3-4 (C) - Pass Details

Date: 19 January 2021
Orbit: 878 x 1335 km, 63.4° (Epoch: 16 February)

Event Time Altitude Azimuth Distance (km) Brightness Sun altitude
Rises 20:30:30 0° 293° (WNW) 3,602 7.4 -35.9°
Reaches altitude 10° 20:33:21 10° 305° (NW) 2,713 6.5 -36.4°
Enters shadow 20:37:37 27° 346° (NNW) 1,850 5.1 -37.0°
